Location: Holyhead Bay
(53.3667°N, 4.6667°W)
Time: 23:32:55
(UTC+00:00)

IRIDIUM 33 DEB - Pass Details

Date: 04 October 2021
Orbit: 583 x 600 km, 86.4° (Epoch: 15 October)

Event Time Altitude Azimuth Distance (km) Brightness Sun altitude
Rises 03:26:03 0° 359° (N) 2,844 ? -26.5°
Reaches altitude 10° 03:28:21 10° 6° (N) 1,934 ? -26.2°
Maximum altitude 03:32:25 44° 79° (E) 822 ? -25.7°
Enters shadow 03:34:53 21° 142° (SE) 1,337 ? -25.4°
